Zurück zum Katalog

STARLINK-1308

AktivKommunikationVLEO
NORAD 45419·PAYLOAD·🇺🇸 United States

Gestartet Mar 18, 2020 von Cape Canaveral Space Force Station

Loading…

Nächste Überflüge (nächste 24 Stunden)

TLE

AktuellSource: CelesTrak SupGP

Epoche: Sep 14, 2026, 20:34 UTC

1 45419C 20019BM  26257.85743056  .00043407  00000+0  27049-3 0  2574
2 45419  53.0410 303.6437 0006970   7.4377 118.3270 15.76174945    16

Verfolge STARLINK-1308 in Echtzeit mit AllMySat

Download on the App Store